Regional Weather Roundup
Issued by NWS Raleigh/Durham, NC

Current Version | Previous Version | Graphics & Text | Print | Product List | Glossary On
Versions: 1 2 3 4 5 6 7 8 9 10 11 12 13 14 15 16 17 18 19 20 21 22 23 24 25 26 27 28
000
ASUS42 KRAH 302310
RWRRAH
NORTH CAROLINA WEATHER ROUNDUP
NATIONAL WEATHER SERVICE RALEIGH NC
700 PM EDT THU OCT 30 2014

NOTE: "FAIR" INDICATES FEW OR NO CLOUDS BELOW 12,000 FEET WITH NO
SIGNIFICANT WEATHER AND/OR OBSTRUCTIONS TO VISIBILITY.

NCZ001-053-055-056-065-067-310000-
WESTERN NORTH CAROLINA

CITY           SKY/WX    TMP DP  RH WIND       PRES   REMARKS
ASHEVILLE      CLEAR     56  31  38 N9        29.99R
JEFFERSON      CLEAR     51  32  49 NW3       30.00S
MORGANTON      CLEAR     51  44  79 SE3       30.02S
HICKORY        CLEAR     56  37  49 CALM      29.98R
RUTHERFORDTON  CLEAR     59  38  46 S3        29.98S
MOUNT AIRY     CLEAR     55  41  60 CALM      30.01R
BOONE          CLEAR     50  30  45 W6        30.01R
$$

NCZ021-022-025-041-071-084-088-310000-
CENTRAL NORTH CAROLINA

CITY           SKY/WX    TMP DP  RH WIND       PRES   REMARKS
CHARLOTTE      CLEAR     58  35  42 N3        29.98S
GREENSBORO     CLEAR     57  37  47 NE3       29.99R
WINSTON-SALEM  CLEAR     57  36  45 NE3       30.00R
RALEIGH-DURHAM PTCLDY    55  45  68 E3        30.00R
FORT BRAGG     PTCLDY    60  49  68 CALM      29.97R
FAYETTEVILLE   CLEAR     61  47  59 N5        29.97R
BURLINGTON     CLEAR     55  38  52 CALM      29.99R
LAURINBURG     PTCLDY    59  43  55 N5        29.97R
$$

NCZ011-015-027-028-043-044-047-080-103-310000-
NORTHEASTERN NORTH CAROLINA

CITY           SKY/WX    TMP DP  RH WIND       PRES   REMARKS
ROCKY MT-WILSO CLEAR     53  48  83 CALM      29.99R
GREENVILLE     CLEAR     55  50  82 CALM      30.00S
WASHINGTON     CLEAR     55  50  82 N3        29.99S
ELIZABETH CITY CLEAR     59  48  67 NE10      30.00R
MANTEO         CLEAR     59  46  63 N9        29.98S
CAPE HATTERAS  CLEAR     61  48  62 NE12G20   29.96R
$$

NCZ078-087-090-091-093-098-101-310000-
SOUTHEASTERN NORTH CAROLINA

CITY           SKY/WX    TMP DP  RH WIND       PRES   REMARKS
LUMBERTON      CLEAR     61  47  59 NE3       29.96R
GOLDSBORO      CLEAR     58  52  80 NE3       29.96S
KINSTON        PTCLDY    55  50  82 CALM      29.99R
KENANSVILLE    CLEAR     56  48  75 CALM      29.98S HAZE
NEW BERN       CLEAR     59  51  75 NE5       29.98R
CHERRY POINT   CLEAR     60  53  77 NE7       29.97R
BEAUFORT       PTCLDY    58  53  84 N6        29.96R
JACKSONVILLE   CLEAR     59  52  77 NE7       29.96R
WILMINGTON     CLEAR     60  54  80 NE5       29.95R
$$




USA.gov is the U.S. government's official web portal to all federal, state and local government web resources and services.